2019-038M (44397 NORAD) Tracking and Keplerian Element Data

This shows tracking and keplerian element data for the satellite.

Feedback or suggestion? Click here.




ElementValue
Catalog44397
Name2019-038M
Epoch Orbit4119
Epoch Day94.14408374
Epoch Year2020
RAAN56.3669
Inclination97.5304
Eccentricity0.0026459
Argument of Perigee28.5651
Mean Anonmoly331.7023
Mean Motion15.11947446
Decay Rate1.016E-05
L11 44397U 19038M 20094.14408374 .00001016 00000-0 62599-4 0 9997
L22 44397 97.5304 56.3669 0026459 28.5651 331.7023 15.11947446 41191

Live tracking and technical data element details for 2019-038M (NORAD 44397). 2019-038M can be tracked NOW for your location showing map with azimuth and elevation plus other details from your city location.

Track the satellite on the map from your city or location and see movement details for azimuth, elevation, latitude, longitude, range, height, and movement on the map or in text.







IsCatalogInMostPopularTable: catalog: 44397, numindb: 41
Update: records affected: 1



GetName: 44397 2019-038M

Hit Count: updated at: Thu, 09 Apr 2020 08:12:48 GMT